| time (UTC) | temp F | wind direction | speed knots | gust knots | rain 1hr in | rain 24hr in | rain mn in | humidity % | barometer mb |
| 20260902125553 | 61 | 0 | 0.0 | 1.7 | 0.00 | 0.00 | 0.00 | 90 | 1014.3 |
| 20260902125055 | 61 | 0 | 0.0 | 1.7 | 0.00 | 0.00 | 0.00 | 90 | 1014.4 |
| 20260902124554 | 61 | 0 | 0.0 | 2.6 | 0.00 | 0.00 | 0.00 | 90 | 1014.4 |
| 20260902124052 | 61 | 352 | 0.0 | 3.5 | 0.00 | 0.00 | 0.00 | 90 | 1014.3 |
| 20260902123556 | 61 | 0 | 0.0 | 3.5 | 0.00 | 0.00 | 0.00 | 90 | 1014.3 |
| 20260902123109 | 61 | 335 | 0.9 | 3.5 | 0.00 | 0.00 | 0.00 | 90 | 1014.3 |
| 20260902122555 | 61 | 0 | 0.0 | 1.7 | 0.00 | 0.00 | 0.00 | 90 | 1014.5 |
| 20260902122052 | 61 | 0 | 0.0 | 1.7 | 0.00 | 0.00 | 0.00 | 90 | 1014.5 |
| 20260902121559 | 61 | 332 | 0.0 | 3.5 | 0.00 | 0.00 | 0.00 | 90 | 1014.5 |
| 20260902121054 | 61 | 0 | 0.0 | 3.5 | 0.00 | 0.00 | 0.00 | 90 | 1014.5 |
| 20260902120557 | 61 | 0 | 0.0 | 3.5 | 0.00 | 0.00 | 0.00 | 90 | 1014.5 |
| 20260902120059 | 61 | 0 | 0.0 | 0.0 | 0.00 | 0.00 | 0.00 | 89 | 1014.6 |
| 20260902115556 | 61 | 0 | 0.0 | 0.0 | 0.00 | 0.00 | 0.00 | 89 | 1014.6 |
| 20260902115054 | 61 | 0 | 0.0 | 0.0 | 0.00 | 0.00 | 0.00 | 89 | 1014.6 |
| 20260902114555 | 61 | 0 | 0.0 | 0.0 | 0.00 | 0.00 | 0.00 | 89 | 1014.6 |
| 20260902114055 | 61 | 0 | 0.0 | 0.0 | 0.00 | 0.00 | 0.00 | 89 | 1014.5 |
| 20260902113552 | 61 | 0 | 0.0 | 0.0 | 0.00 | 0.00 | 0.00 | 89 | 1014.5 |
| 20260902113101 | 61 | 0 | 0.0 | 0.0 | 0.00 | 0.00 | 0.00 | 89 | 1014.6 |
| 20260902112552 | 62 | 0 | 0.0 | 0.0 | 0.00 | 0.00 | 0.00 | 88 | 1014.6 |
| 20260902112055 | 62 | 0 | 0.0 | 0.0 | 0.00 | 0.00 | 0.00 | 89 | 1014.5 |
| 20260902111603 | 62 | 0 | 0.0 | 0.0 | 0.00 | 0.00 | 0.00 | 89 | 1014.5 |
| 20260902111055 | 62 | 0 | 0.0 | 0.0 | 0.00 | 0.00 | 0.00 | 89 | 1014.5 |
| 20260902110555 | 62 | 0 | 0.0 | 0.0 | 0.00 | 0.00 | 0.00 | 89 | 1014.5 |
| 20260902110103 | 62 | 0 | 0.0 | 0.0 | 0.00 | 0.00 | 0.00 | 88 | 1014.6 |
| 20260902105554 | 62 | 0 | 0.0 | 0.0 | 0.00 | 0.00 | 0.00 | 88 | 1014.5 |
| 20260902105054 | 62 | 0 | 0.0 | 0.0 | 0.00 | 0.00 | 0.00 | 88 | 1014.5 |
| 20260902104613 | 62 | 0 | 0.0 | 0.0 | 0.00 | 0.00 | 0.00 | 88 | 1014.5 |
| 20260902104055 | 62 | 0 | 0.0 | 1.7 | 0.00 | 0.00 | 0.00 | 88 | 1014.6 |
| 20260902103554 | 62 | 0 | 0.0 | 1.7 | 0.00 | 0.00 | 0.00 | 88 | 1014.6 |
| 20260902103109 | 62 | 0 | 0.0 | 2.6 | 0.00 | 0.00 | 0.00 | 88 | 1014.5 |
| 20260902102554 | 62 | 0 | 0.0 | 2.6 | 0.00 | 0.00 | 0.00 | 88 | 1014.6 |
| 20260902102055 | 62 | 0 | 0.0 | 2.6 | 0.00 | 0.00 | 0.00 | 88 | 1014.5 |
| 20260902101607 | 62 | 0 | 0.0 | 1.7 | 0.00 | 0.00 | 0.00 | 88 | 1014.5 |
| 20260902101057 | 62 | 0 | 0.0 | 1.7 | 0.00 | 0.00 | 0.00 | 88 | 1014.5 |
| 20260902100555 | 62 | 0 | 0.0 | 2.6 | 0.00 | 0.00 | 0.00 | 88 | 1014.5 |
| 20260902100100 | 62 | 65 | 0.9 | 3.5 | 0.00 | 0.00 | 0.00 | 88 | 1014.5 |
| 20260902095555 | 62 | 66 | 0.9 | 3.5 | 0.00 | 0.00 | 0.00 | 88 | 1014.5 |
| 20260902095056 | 62 | 72 | 0.0 | 2.6 | 0.00 | 0.00 | 0.00 | 88 | 1014.6 |
| 20260902094555 | 62 | 0 | 0.0 | 2.6 | 0.00 | 0.00 | 0.00 | 88 | 1014.6 |
| 20260902094055 | 62 | 0 | 0.9 | 2.6 | 0.00 | 0.00 | 0.00 | 88 | 1014.6 |
| 20260902093555 | 62 | 0 | 0.0 | 2.6 | 0.00 | 0.00 | 0.00 | 88 | 1014.6 |
| 20260902093054 | 62 | 0 | 0.0 | 0.0 | 0.00 | 0.00 | 0.00 | 88 | 1014.5 |
| 20260902092558 | 62 | 0 | 0.0 | 0.0 | 0.00 | 0.00 | 0.00 | 88 | 1014.6 |
| 20260902092056 | 62 | 0 | 0.0 | 0.0 | 0.00 | 0.00 | 0.00 | 88 | 1014.5 |
| 20260902091601 | 62 | 0 | 0.0 | 0.0 | 0.00 | 0.00 | 0.00 | 87 | 1014.6 |
| 20260902091055 | 62 | 0 | 0.0 | 0.0 | 0.00 | 0.00 | 0.00 | 87 | 1014.6 |
| 20260902090555 | 62 | 0 | 0.0 | 0.0 | 0.00 | 0.00 | 0.00 | 87 | 1014.5 |
| 20260902090057 | 62 | 0 | 0.0 | 0.0 | 0.00 | 0.00 | 0.00 | 87 | 1014.5 |
| 20260902085554 | 62 | 0 | 0.0 | 0.0 | 0.00 | 0.00 | 0.00 | 87 | 1014.5 |
| 20260902085054 | 62 | 0 | 0.0 | 0.0 | 0.00 | 0.00 | 0.00 | 87 | 1014.6 |
| 20260902084558 | 62 | 0 | 0.0 | 0.0 | 0.00 | 0.00 | 0.00 | 87 | 1014.6 |
| 20260902084055 | 62 | 0 | 0.0 | 0.0 | 0.00 | 0.00 | 0.00 | 87 | 1014.6 |
| 20260902083557 | 62 | 0 | 0.0 | 0.0 | 0.00 | 0.00 | 0.00 | 87 | 1014.6 |
| 20260902083057 | 62 | 0 | 0.0 | 0.0 | 0.00 | 0.00 | 0.00 | 86 | 1014.5 |
| 20260902082554 | 62 | 0 | 0.0 | 0.0 | 0.00 | 0.00 | 0.00 | 86 | 1014.5 |
| 20260902082055 | 62 | 0 | 0.0 | 0.0 | 0.00 | 0.00 | 0.00 | 86 | 1014.6 |
| 20260902081601 | 62 | 0 | 0.0 | 0.0 | 0.00 | 0.00 | 0.00 | 86 | 1014.6 |
| 20260902081055 | 62 | 0 | 0.0 | 0.0 | 0.00 | 0.00 | 0.00 | 85 | 1014.5 |
| 20260902080555 | 63 | 0 | 0.0 | 0.0 | 0.00 | 0.00 | 0.00 | 85 | 1014.6 |
| 20260902080059 | 63 | 0 | 0.0 | 0.0 | 0.00 | 0.00 | 0.00 | 85 | 1014.5 |
| 20260902075555 | 63 | 0 | 0.0 | 0.0 | 0.00 | 0.00 | 0.00 | 85 | 1014.5 |
| 20260902075055 | 63 | 0 | 0.0 | 2.6 | 0.00 | 0.00 | 0.00 | 85 | 1014.6 |
| 20260902074556 | 63 | 0 | 0.0 | 2.6 | 0.00 | 0.00 | 0.00 | 85 | 1014.5 |
| 20260902074055 | 63 | 0 | 0.9 | 2.6 | 0.00 | 0.00 | 0.00 | 85 | 1014.5 |
| 20260902073555 | 63 | 0 | 0.0 | 1.7 | 0.00 | 0.00 | 0.00 | 85 | 1014.5 |
| 20260902073105 | 63 | 0 | 0.0 | 1.7 | 0.00 | 0.00 | 0.00 | 85 | 1014.5 |
| 20260902072556 | 63 | 55 | 0.0 | 1.7 | 0.00 | 0.00 | 0.00 | 84 | 1014.5 |
| 20260902072058 | 63 | 26 | 0.0 | 1.7 | 0.00 | 0.00 | 0.00 | 84 | 1014.5 |
| 20260902071601 | 63 | 17 | 0.0 | 1.7 | 0.00 | 0.00 | 0.00 | 84 | 1014.5 |
| 20260902071056 | 63 | 0 | 0.0 | 0.0 | 0.00 | 0.00 | 0.00 | 84 | 1014.3 |
| 20260902070556 | 63 | 0 | 0.0 | 0.0 | 0.00 | 0.00 | 0.00 | 84 | 1014.3 |
| 20260902065557 | 63 | 0 | 0.0 | 1.7 | 0.00 | 0.00 | 0.00 | 84 | 1014.4 |
| 20260902065058 | 63 | 0 | 0.0 | 1.7 | 0.00 | 0.00 | 0.00 | 83 | 1014.3 |
| 20260902064604 | 63 | 0 | 0.0 | 1.7 | 0.00 | 0.00 | 0.00 | 83 | 1014.3 |
| 20260902064057 | 63 | 0 | 0.0 | 1.7 | 0.00 | 0.00 | 0.00 | 84 | 1014.3 |
| 20260902063555 | 63 | 0 | 0.0 | 1.7 | 0.00 | 0.00 | 0.00 | 84 | 1014.3 |
| 20260902063113 | 63 | 0 | 0.0 | 0.0 | 0.00 | 0.00 | 0.00 | 83 | 1014.2 |
| 20260902062554 | 63 | 0 | 0.0 | 0.0 | 0.00 | 0.00 | 0.00 | 83 | 1014.3 |
| 20260902062056 | 63 | 0 | 0.0 | 0.9 | 0.00 | 0.00 | 0.00 | 84 | 1014.3 |
| 20260902061625 | 63 | 0 | 0.0 | 0.9 | 0.00 | 0.00 | 0.00 | 83 | 1014.3 |
| 20260902061101 | 63 | 0 | 0.0 | 0.9 | 0.00 | 0.00 | 0.00 | 83 | 1014.3 |
| 20260902060555 | 63 | 0 | 0.0 | 0.0 | 0.00 | 0.00 | 0.00 | 83 | 1014.3 |
| 20260902060109 | 63 | 0 | 0.0 | 0.0 | 0.00 | 0.00 | 0.00 | 83 | 1014.2 |
| 20260902055554 | 63 | 0 | 0.0 | 0.0 | 0.00 | 0.00 | 0.00 | 83 | 1014.2 |
| 20260902055055 | 63 | 0 | 0.0 | 1.7 | 0.00 | 0.00 | 0.00 | 82 | 1014.2 |
| 20260902054556 | 63 | 0 | 0.0 | 1.7 | 0.00 | 0.00 | 0.00 | 82 | 1014.2 |
| 20260902054054 | 64 | 0 | 0.0 | 1.7 | 0.00 | 0.00 | 0.00 | 82 | 1014.2 |
| 20260902053554 | 64 | 0 | 0.0 | 0.9 | 0.00 | 0.00 | 0.00 | 82 | 1014.1 |
| 20260902053059 | 64 | 0 | 0.0 | 0.9 | 0.00 | 0.00 | 0.00 | 82 | 1014.1 |
| 20260902052558 | 64 | 0 | 0.0 | 0.0 | 0.00 | 0.00 | 0.00 | 82 | 1014.2 |
| 20260902052055 | 64 | 0 | 0.0 | 0.9 | 0.00 | 0.00 | 0.00 | 82 | 1014.2 |
| 20260902051614 | 64 | 0 | 0.0 | 0.9 | 0.00 | 0.00 | 0.00 | 82 | 1014.2 |
| 20260902051055 | 64 | 0 | 0.0 | 0.0 | 0.00 | 0.00 | 0.00 | 82 | 1014.1 |
| 20260902050558 | 64 | 0 | 0.0 | 0.9 | 0.00 | 0.00 | 0.00 | 82 | 1014.1 |
| 20260902045554 | 64 | 0 | 0.0 | 0.0 | 0.00 | 0.00 | 0.00 | 82 | 1014.0 |
| 20260902045051 | 65 | 0 | 0.0 | 0.0 | 0.00 | 0.00 | 0.00 | 81 | 1013.9 |
| 20260902044621 | 65 | 0 | 0.0 | 0.0 | 0.00 | 0.00 | 0.00 | 81 | 1013.9 |
| 20260902044052 | 65 | 0 | 0.0 | 1.7 | 0.00 | 0.00 | 0.00 | 81 | 1013.8 |
| 20260902043554 | 65 | 0 | 0.0 | 1.7 | 0.00 | 0.00 | 0.00 | 81 | 1013.7 |
| 20260902043055 | 65 | 0 | 0.0 | 1.7 | 0.00 | 0.00 | 0.00 | 80 | 1013.7 |
| 20260902042551 | 65 | 0 | 0.0 | 0.0 | 0.00 | 0.00 | 0.00 | 80 | 1013.6 |
| 20260902042055 | 65 | 0 | 0.0 | 0.0 | 0.00 | 0.00 | 0.00 | 80 | 1013.5 |
| 20260902041605 | 66 | 0 | 0.0 | 1.7 | 0.00 | 0.00 | 0.00 | 79 | 1013.5 |
| 20260902041057 | 66 | 0 | 0.0 | 1.7 | 0.00 | 0.00 | 0.00 | 79 | 1013.4 |
| 20260902040555 | 66 | 0 | 0.0 | 2.6 | 0.00 | 0.00 | 0.00 | 79 | 1013.4 |
| 20260902035554 | 66 | 335 | 0.0 | 1.7 | 0.00 | 0.00 | 0.00 | 78 | 1013.4 |
| 20260902035054 | 67 | 0 | 0.0 | 1.7 | 0.00 | 0.00 | 0.00 | 78 | 1013.3 |
| 20260902034601 | 67 | 0 | 0.0 | 0.0 | 0.00 | 0.00 | 0.00 | 77 | 1013.3 |
| 20260902034054 | 67 | 0 | 0.0 | 0.0 | 0.00 | 0.00 | 0.00 | 77 | 1013.3 |
| 20260902033551 | 67 | 0 | 0.0 | 0.0 | 0.00 | 0.00 | 0.00 | 77 | 1013.3 |
| 20260902033100 | 67 | 0 | 0.0 | 1.7 | 0.00 | 0.00 | 0.00 | 77 | 1013.2 |
| 20260902032557 | 67 | 0 | 0.0 | 3.5 | 0.00 | 0.00 | 0.00 | 76 | 1013.2 |
| 20260902032055 | 68 | 0 | 0.9 | 3.5 | 0.00 | 0.00 | 0.00 | 76 | 1013.1 |
| 20260902031621 | 68 | 0 | 0.0 | 5.2 | 0.00 | 0.00 | 0.00 | 76 | 1013.2 |
| 20260902031055 | 68 | 0 | 1.7 | 5.2 | 0.00 | 0.00 | 0.00 | 76 | 1013.2 |
| 20260902030555 | 68 | 264 | 1.7 | 5.2 | 0.00 | 0.00 | 0.00 | 77 | 1013.1 |
| 20260902025555 | 68 | 0 | 0.0 | 8.7 | 0.00 | 0.00 | 0.00 | 77 | 1013.0 |
| 20260902025055 | 68 | 292 | 3.5 | 8.7 | 0.00 | 0.00 | 0.00 | 76 | 1013.0 |
| 20260902024605 | 68 | 273 | 0.9 | 8.7 | 0.00 | 0.00 | 0.00 | 76 | 1012.9 |
| 20260902024054 | 68 | 166 | 2.6 | 8.7 | 0.00 | 0.00 | 0.00 | 76 | 1012.9 |
| 20260902023554 | 68 | 269 | 4.3 | 7.8 | 0.00 | 0.00 | 0.00 | 76 | 1012.8 |
| 20260902023103 | 68 | 276 | 3.5 | 7.8 | 0.00 | 0.00 | 0.00 | 75 | 1012.9 |
| 20260902022558 | 69 | 282 | 1.7 | 6.1 | 0.00 | 0.00 | 0.00 | 75 | 1012.7 |
| 20260902022051 | 69 | 181 | 1.7 | 5.2 | 0.00 | 0.00 | 0.00 | 75 | 1012.6 |
| 20260902021603 | 69 | 261 | 1.7 | 7.0 | 0.00 | 0.00 | 0.00 | 75 | 1012.7 |
| 20260902021055 | 69 | 240 | 1.7 | 7.0 | 0.00 | 0.00 | 0.00 | 74 | 1012.8 |
| 20260902020555 | 69 | 176 | 2.6 | 6.1 | 0.00 | 0.00 | 0.00 | 75 | 1012.7 |
| 20260902020101 | 69 | 239 | 3.5 | 8.7 | 0.00 | 0.00 | 0.00 | 75 | 1012.7 |
| 20260902015551 | 69 | 188 | 2.6 | 8.7 | 0.00 | 0.00 | 0.00 | 75 | 1012.7 |
| 20260902015055 | 70 | 297 | 5.2 | 8.7 | 0.00 | 0.00 | 0.00 | 74 | 1012.7 |
| 20260902014559 | 70 | 302 | 3.5 | 7.8 | 0.00 | 0.00 | 0.00 | 75 | 1012.8 |
| 20260902014056 | 70 | 306 | 2.6 | 8.7 | 0.00 | 0.00 | 0.00 | 75 | 1012.8 |
| 20260902013555 | 70 | 278 | 3.5 | 8.7 | 0.00 | 0.00 | 0.00 | 74 | 1012.7 |
| 20260902013105 | 71 | 277 | 4.3 | 7.8 | 0.00 | 0.00 | 0.00 | 74 | 1012.8 |
| 20260902012554 | 71 | 233 | 3.5 | 7.8 | 0.00 | 0.00 | 0.00 | 74 | 1012.8 |
| 20260902012056 | 71 | 146 | 4.3 | 7.8 | 0.00 | 0.00 | 0.00 | 73 | 1012.8 |
| 20260902011558 | 71 | 206 | 2.6 | 7.8 | 0.00 | 0.00 | 0.00 | 73 | 1012.7 |
| 20260902011058 | 72 | 261 | 2.6 | 7.8 | 0.00 | 0.00 | 0.00 | 73 | 1012.8 |
| 20260902010554 | 72 | 269 | 1.7 | 7.8 | 0.00 | 0.00 | 0.00 | 73 | 1012.9 |
| 20260902010105 | 71 | 235 | 2.6 | 9.6 | 0.00 | 0.00 | 0.00 | 73 | 1012.9 |
| 20260902005554 | 71 | 269 | 5.2 | 9.6 | 0.00 | 0.00 | 0.00 | 72 | 1012.9 |
| 20260902005056 | 71 | 283 | 2.6 | 9.6 | 0.00 | 0.00 | 0.00 | 72 | 1013.0 |
| 20260902004558 | 72 | 271 | 5.2 | 9.6 | 0.00 | 0.00 | 0.00 | 73 | 1013.0 |
| 20260902004056 | 72 | 267 | 3.5 | 13.0 | 0.00 | 0.00 | 0.00 | 72 | 1013.1 |
| 20260902003554 | 72 | 271 | 5.2 | 13.0 | 0.00 | 0.00 | 0.00 | 71 | 1013.1 |
| 20260902003105 | 72 | 276 | 6.1 | 10.4 | 0.00 | 0.00 | 0.00 | 71 | 1013.1 |
| 20260902002554 | 72 | 273 | 2.6 | 8.7 | 0.00 | 0.00 | 0.00 | 72 | 1013.1 |
| 20260902002055 | 72 | 189 | 4.3 | 9.6 | 0.00 | 0.00 | 0.00 | 70 | 1013.0 |
| 20260902001603 | 73 | 198 | 3.5 | 9.6 | 0.00 | 0.00 | 0.00 | 71 | 1013.0 |
| 20260902001054 | 73 | 180 | 3.5 | 8.7 | 0.00 | 0.00 | 0.00 | 71 | 1013.1 |
| 20260902000554 | 73 | 189 | 3.5 | 8.7 | 0.00 | 0.00 | 0.00 | 72 | 1013.0 |
| 20260902000055 | 73 | 185 | 4.3 | 8.7 | 0.00 | 0.00 | 0.00 | 72 | 1013.2 |
| 20260901235554 | 73 | 244 | 2.6 | 9.6 | 0.00 | 0.00 | 0.00 | 71 | 1013.1 |
| 20260901235055 | 73 | 194 | 4.3 | 9.6 | 0.00 | 0.00 | 0.00 | 70 | 1013.1 |
| 20260901234608 | 73 | 173 | 5.2 | 9.6 | 0.00 | 0.00 | 0.00 | 70 | 1013.2 |
| 20260901234053 | 73 | 256 | 4.3 | 9.6 | 0.00 | 0.00 | 0.00 | 71 | 1013.3 |
| 20260901233552 | 73 | 178 | 6.1 | 9.6 | 0.00 | 0.00 | 0.00 | 68 | 1013.2 |
| 20260901233104 | 73 | 288 | 4.3 | 10.4 | 0.00 | 0.00 | 0.00 | 71 | 1013.2 |
| 20260901232555 | 72 | 205 | 4.3 | 11.3 | 0.00 | 0.00 | 0.00 | 72 | 1013.2 |
| 20260901232059 | 72 | 254 | 5.2 | 12.2 | 0.00 | 0.00 | 0.00 | 72 | 1013.3 |
| 20260901231607 | 72 | 254 | 7.0 | 12.2 | 0.00 | 0.00 | 0.00 | 70 | 1013.2 |
| 20260901231054 | 73 | 287 | 5.2 | 12.2 | 0.00 | 0.00 | 0.00 | 69 | 1013.3 |
| 20260901230555 | 74 | 215 | 4.3 | 12.2 | 0.00 | 0.00 | 0.00 | 69 | 1013.4 |
| 20260901230108 | 74 | 250 | 3.5 | 11.3 | 0.00 | 0.00 | 0.00 | 70 | 1013.3 |
| 20260901225554 | 74 | 192 | 5.2 | 11.3 | 0.00 | 0.00 | 0.00 | 70 | 1013.5 |
| 20260901225054 | 74 | 310 | 4.3 | 9.6 | 0.00 | 0.00 | 0.00 | 70 | 1013.5 |
| 20260901224555 | 74 | 227 | 4.3 | 9.6 | 0.00 | 0.00 | 0.00 | 70 | 1013.5 |
| 20260901224054 | 74 | 252 | 4.3 | 10.4 | 0.00 | 0.00 | 0.00 | 71 | 1013.6 |
| 20260901223556 | 73 | 327 | 5.2 | 10.4 | 0.00 | 0.00 | 0.00 | 70 | 1013.5 |
| 20260901223100 | 74 | 245 | 6.1 | 11.3 | 0.00 | 0.00 | 0.00 | 69 | 1013.6 |
| 20260901222557 | 74 | 159 | 7.0 | 13.0 | 0.00 | 0.00 | 0.00 | 66 | 1013.5 |
| 20260901222057 | 74 | 187 | 5.2 | 13.0 | 0.00 | 0.00 | 0.00 | 69 | 1013.7 |
| 20260901221612 | 75 | 169 | 7.0 | 12.2 | 0.00 | 0.00 | 0.00 | 68 | 1013.6 |
| 20260901221055 | 75 | 222 | 5.2 | 12.2 | 0.00 | 0.00 | 0.00 | 69 | 1013.6 |
| 20260901220557 | 75 | 218 | 5.2 | 11.3 | 0.00 | 0.00 | 0.00 | 70 | 1013.6 |
| 20260901220059 | 74 | 163 | 5.2 | 11.3 | 0.00 | 0.00 | 0.00 | 69 | 1013.7 |
| 20260901215556 | 75 | 177 | 5.2 | 10.4 | 0.00 | 0.00 | 0.00 | 69 | 1013.8 |
| 20260901215055 | 75 | 211 | 6.1 | 13.9 | 0.00 | 0.00 | 0.00 | 69 | 1013.9 |
| 20260901214555 | 75 | 250 | 6.1 | 13.9 | 0.00 | 0.00 | 0.00 | 69 | 1013.9 |
| 20260901214055 | 75 | 194 | 6.1 | 10.4 | 0.00 | 0.00 | 0.00 | 69 | 1013.9 |
| 20260901213556 | 75 | 243 | 5.2 | 10.4 | 0.00 | 0.00 | 0.00 | 69 | 1014.0 |
| 20260901213105 | 75 | 274 | 4.3 | 8.7 | 0.00 | 0.00 | 0.00 | 69 | 1014.0 |
| 20260901212555 | 75 | 284 | 3.5 | 7.8 | 0.00 | 0.00 | 0.00 | 69 | 1014.0 |
| 20260901212055 | 75 | 183 | 3.5 | 10.4 | 0.00 | 0.00 | 0.00 | 69 | 1013.9 |
| 20260901211557 | 75 | 296 | 6.1 | 10.4 | 0.00 | 0.00 | 0.00 | 69 | 1014.1 |
| 20260901211054 | 75 | 274 | 4.3 | 10.4 | 0.00 | 0.00 | 0.00 | 69 | 1014.1 |
| 20260901210555 | 75 | 271 | 3.5 | 10.4 | 0.00 | 0.00 | 0.00 | 69 | 1014.1 |
| 20260901210056 | 75 | 219 | 5.2 | 9.6 | 0.00 | 0.00 | 0.00 | 69 | 1014.1 |
| 20260901205555 | 75 | 202 | 5.2 | 9.6 | 0.00 | 0.00 | 0.00 | 69 | 1014.2 |
| 20260901205056 | 74 | 260 | 4.3 | 11.3 | 0.00 | 0.00 | 0.00 | 69 | 1014.3 |
| 20260901204607 | 74 | 271 | 4.3 | 11.3 | 0.00 | 0.00 | 0.00 | 70 | 1014.3 |
| 20260901204055 | 74 | 192 | 3.5 | 9.6 | 0.00 | 0.00 | 0.00 | 69 | 1014.4 |
| 20260901203558 | 74 | 189 | 5.2 | 9.6 | 0.00 | 0.00 | 0.00 | 70 | 1014.4 |
| 20260901203104 | 74 | 250 | 6.1 | 9.6 | 0.00 | 0.00 | 0.00 | 71 | 1014.2 |
| 20260901202555 | 74 | 161 | 4.3 | 9.6 | 0.00 | 0.00 | 0.00 | 70 | 1014.4 |
| 20260901202056 | 74 | 247 | 5.2 | 9.6 | 0.00 | 0.00 | 0.00 | 69 | 1014.4 |
| 20260901201600 | 74 | 217 | 3.5 | 9.6 | 0.00 | 0.00 | 0.00 | 70 | 1014.5 |
| 20260901201056 | 74 | 271 | 4.3 | 10.4 | 0.00 | 0.00 | 0.00 | 70 | 1014.5 |
| 20260901200554 | 74 | 248 | 5.2 | 10.4 | 0.00 | 0.00 | 0.00 | 71 | 1014.6 |
| 20260901200056 | 74 | 182 | 4.3 | 10.4 | 0.00 | 0.00 | 0.00 | 70 | 1014.7 |
| 20260901195554 | 74 | 309 | 4.3 | 10.4 | 0.00 | 0.00 | 0.00 | 71 | 1014.7 |
| 20260901195057 | 74 | 163 | 3.5 | 9.6 | 0.00 | 0.00 | 0.00 | 70 | 1014.6 |
| 20260901194602 | 74 | 189 | 2.6 | 9.6 | 0.00 | 0.00 | 0.00 | 71 | 1014.6 |
| 20260901194056 | 74 | 173 | 2.6 | 9.6 | 0.00 | 0.00 | 0.00 | 72 | 1014.7 |
| 20260901193555 | 73 | 194 | 5.2 | 9.6 | 0.00 | 0.00 | 0.00 | 71 | 1014.8 |
| 20260901193101 | 74 | 178 | 6.1 | 12.2 | 0.00 | 0.00 | 0.00 | 70 | 1014.9 |
| 20260901192558 | 74 | 242 | 4.3 | 12.2 | 0.00 | 0.00 | 0.00 | 71 | 1014.8 |
| 20260901192055 | 74 | 179 | 4.3 | 10.4 | 0.00 | 0.00 | 0.00 | 71 | 1014.9 |
| 20260901191600 | 74 | 195 | 4.3 | 8.7 | 0.00 | 0.00 | 0.00 | 70 | 1014.9 |
| 20260901191055 | 74 | 180 | 4.3 | 8.7 | 0.00 | 0.00 | 0.00 | 69 | 1014.9 |
| 20260901190555 | 74 | 259 | 3.5 | 8.7 | 0.00 | 0.00 | 0.00 | 69 | 1014.9 |
| 20260901190104 | 74 | 266 | 3.5 | 8.7 | 0.00 | 0.00 | 0.00 | 69 | 1014.9 |
| 20260901185555 | 74 | 259 | 2.6 | 9.6 | 0.00 | 0.00 | 0.00 | 70 | 1014.9 |
| 20260901185058 | 74 | 286 | 1.7 | 9.6 | 0.00 | 0.00 | 0.00 | 70 | 1014.8 |
| 20260901184605 | 74 | 119 | 3.5 | 8.7 | 0.00 | 0.00 | 0.00 | 70 | 1014.9 |
| 20260901184055 | 74 | 211 | 2.6 | 6.1 | 0.00 | 0.00 | 0.00 | 71 | 1014.8 |
| 20260901183555 | 74 | 138 | 1.7 | 7.0 | 0.00 | 0.00 | 0.00 | 71 | 1014.9 |
| 20260901183119 | 74 | 68 | 0.9 | 7.0 | 0.00 | 0.00 | 0.00 | 72 | 1014.8 |
| 20260901182555 | 73 | 212 | 0.9 | 6.1 | 0.00 | 0.00 | 0.00 | 73 | 1014.8 |
| 20260901182058 | 73 | 197 | 1.7 | 6.1 | 0.00 | 0.00 | 0.00 | 74 | 1014.9 |
| 20260901181558 | 72 | 286 | 2.6 | 6.1 | 0.00 | 0.00 | 0.00 | 74 | 1014.9 |
| 20260901181054 | 72 | 242 | 1.7 | 6.1 | 0.00 | 0.00 | 0.00 | 75 | 1014.9 |
| 20260901180554 | 72 | 0 | 2.6 | 7.0 | 0.00 | 0.00 | 0.00 | 74 | 1015.0 |
| 20260901180104 | 72 | 248 | 2.6 | 7.0 | 0.00 | 0.00 | 0.00 | 74 | 1015.0 |
| 20260901175557 | 72 | 192 | 2.6 | 6.1 | 0.00 | 0.00 | 0.00 | 74 | 1015.0 |
| 20260901175056 | 73 | 211 | 0.9 | 5.2 | 0.00 | 0.00 | 0.00 | 74 | 1015.0 |
| 20260901174603 | 73 | 205 | 1.7 | 7.0 | 0.00 | 0.00 | 0.00 | 74 | 1014.8 |
| 20260901174055 | 72 | 233 | 2.6 | 7.8 | 0.00 | 0.00 | 0.00 | 74 | 1014.9 |
| 20260901173558 | 72 | 205 | 1.7 | 7.8 | 0.00 | 0.00 | 0.00 | 75 | 1014.9 |
| 20260901173138 | 72 | 206 | 2.6 | 7.8 | 0.00 | 0.00 | 0.00 | 75 | 1014.9 |
| 20260901172557 | 71 | 242 | 0.9 | 6.1 | 0.00 | 0.00 | 0.00 | 76 | 1014.9 |
| 20260901172055 | 71 | 272 | 2.6 | 7.0 | 0.00 | 0.00 | 0.00 | 75 | 1014.9 |
| 20260901171605 | 72 | 227 | 3.5 | 7.0 | 0.00 | 0.00 | 0.00 | 74 | 1014.9 |
| 20260901171058 | 72 | 259 | 0.9 | 3.5 | 0.00 | 0.00 | 0.00 | 73 | 1014.8 |
| 20260901170555 | 72 | 211 | 1.7 | 3.5 | 0.00 | 0.00 | 0.00 | 74 | 1014.8 |
| 20260901165554 | 71 | 182 | 0.0 | 4.3 | 0.00 | 0.00 | 0.00 | 74 | 1014.8 |
| 20260901165058 | 71 | 198 | 0.9 | 4.3 | 0.00 | 0.00 | 0.00 | 75 | 1014.8 |
| 20260901164556 | 70 | 47 | 0.0 | 5.2 | 0.00 | 0.00 | 0.00 | 76 | 1014.9 |
| 20260901164055 | 70 | 0 | 0.0 | 5.2 | 0.00 | 0.00 | 0.00 | 76 | 1014.7 |
| 20260901163555 | 70 | 234 | 1.7 | 6.1 | 0.00 | 0.00 | 0.00 | 76 | 1014.8 |
| 20260901163119 | 70 | 170 | 0.9 | 6.1 | 0.00 | 0.00 | 0.00 | 77 | 1014.8 |
| 20260901162554 | 69 | 88 | 0.9 | 6.1 | 0.00 | 0.00 | 0.00 | 78 | 1014.8 |
| 20260901162055 | 69 | 298 | 0.9 | 5.2 | 0.00 | 0.00 | 0.00 | 78 | 1014.8 |
| 20260901161608 | 69 | 175 | 0.9 | 3.5 | 0.00 | 0.00 | 0.00 | 81 | 1014.7 |
| 20260901161055 | 68 | 105 | 0.0 | 4.3 | 0.00 | 0.00 | 0.00 | 82 | 1014.7 |
| 20260901160555 | 67 | 253 | 0.9 | 4.3 | 0.00 | 0.00 | 0.00 | 82 | 1014.8 |
| 20260901160107 | 67 | 158 | 2.6 | 4.3 | 0.00 | 0.00 | 0.00 | 82 | 1014.8 |
| 20260901155555 | 67 | 177 | 0.9 | 6.1 | 0.00 | 0.00 | 0.00 | 83 | 1014.8 |
| 20260901155055 | 67 | 164 | 2.6 | 7.8 | 0.00 | 0.00 | 0.00 | 83 | 1014.8 |
| 20260901154606 | 66 | 221 | 2.6 | 8.7 | 0.00 | 0.00 | 0.00 | 83 | 1014.6 |
| 20260901154058 | 66 | 261 | 3.5 | 8.7 | 0.00 | 0.00 | 0.00 | 84 | 1014.6 |
| 20260901153555 | 66 | 184 | 0.0 | 5.2 | 0.00 | 0.00 | 0.00 | 85 | 1014.6 |
| 20260901153105 | 66 | 165 | 1.7 | 5.2 | 0.00 | 0.00 | 0.00 | 84 | 1014.7 |
| 20260901152555 | 66 | 304 | 0.0 | 3.5 | 0.00 | 0.00 | 0.00 | 85 | 1014.7 |
| 20260901152055 | 66 | 0 | 0.0 | 3.5 | 0.00 | 0.00 | 0.00 | 86 | 1014.6 |
| 20260901151612 | 66 | 0 | 0.0 | 3.5 | 0.00 | 0.00 | 0.00 | 86 | 1014.5 |
| 20260901151055 | 66 | 180 | 0.0 | 0.0 | 0.00 | 0.00 | 0.00 | 87 | 1014.5 |
| 20260901150555 | 66 | 0 | 0.0 | 0.0 | 0.00 | 0.00 | 0.00 | 88 | 1014.4 |
| 20260901150103 | 65 | 0 | 0.0 | 0.0 | 0.00 | 0.00 | 0.00 | 89 | 1014.4 |
| 20260901145555 | 65 | 0 | 0.0 | 1.7 | 0.00 | 0.00 | 0.00 | 90 | 1014.2 |
| 20260901145055 | 64 | 0 | 0.0 | 1.7 | 0.00 | 0.00 | 0.00 | 90 | 1014.2 |
| 20260901144608 | 64 | 299 | 0.0 | 0.9 | 0.00 | 0.00 | 0.00 | 90 | 1014.1 |
| 20260901144058 | 64 | 0 | 0.0 | 0.0 | 0.00 | 0.00 | 0.00 | 91 | 1014.0 |
| 20260901143554 | 64 | 0 | 0.0 | 0.9 | 0.00 | 0.00 | 0.00 | 92 | 1013.9 |
| 20260901143105 | 63 | 0 | 0.0 | 0.9 | 0.00 | 0.00 | 0.00 | 92 | 1013.9 |
| 20260901142555 | 63 | 0 | 0.0 | 0.0 | 0.00 | 0.00 | 0.00 | 93 | 1013.8 |
| 20260901142055 | 62 | 0 | 0.0 | 0.0 | 0.00 | 0.00 | 0.00 | 93 | 1013.7 |
| 20260901141604 | 62 | 0 | 0.0 | 1.7 | 0.00 | 0.00 | 0.00 | 92 | 1013.8 |
| 20260901141058 | 62 | 0 | 0.0 | 1.7 | 0.00 | 0.00 | 0.00 | 93 | 1013.7 |
| 20260901140554 | 61 | 332 | 0.0 | 0.9 | 0.00 | 0.00 | 0.00 | 93 | 1013.7 |
| 20260901140104 | 61 | 0 | 0.0 | 1.7 | 0.00 | 0.00 | 0.00 | 93 | 1013.8 |
| 20260901135556 | 61 | 0 | 0.9 | 1.7 | 0.00 | 0.00 | 0.00 | 93 | 1013.8 |
| 20260901135056 | 61 | 0 | 0.0 | 2.6 | 0.00 | 0.00 | 0.00 | 92 | 1013.7 |
| 20260901134557 | 61 | 0 | 0.0 | 2.6 | 0.00 | 0.00 | 0.00 | 92 | 1013.6 |
| 20260901134055 | 61 | 338 | 0.0 | 1.7 | 0.00 | 0.00 | 0.00 | 92 | 1013.4 |
| 20260901133558 | 61 | 0 | 0.0 | 2.6 | 0.00 | 0.00 | 0.00 | 92 | 1013.6 |
| 20260901133059 | 61 | 336 | 0.0 | 2.6 | 0.00 | 0.00 | 0.00 | 92 | 1013.6 |
| 20260901132557 | 61 | 0 | 0.0 | 1.7 | 0.00 | 0.00 | 0.00 | 92 | 1013.6 |
| 20260901132054 | 61 | 0 | 0.0 | 3.5 | 0.00 | 0.00 | 0.00 | 92 | 1013.7 |
| 20260901131601 | 61 | 0 | 0.9 | 3.5 | 0.00 | 0.00 | 0.00 | 93 | 1013.6 |
| 20260901131057 | 61 | 346 | 0.9 | 3.5 | 0.00 | 0.00 | 0.00 | 93 | 1013.6 |
| 20260901130555 | 61 | 0 | 0.0 | 1.7 | 0.00 | 0.00 | 0.00 | 92 | 1013.4 |
| 20260901130106 | 61 | 0 | 0.0 | 1.7 | 0.00 | 0.00 | 0.00 | 92 | 1013.3 |